Etusivu
METAR-TAF:

METAR-TAF

Lentoasemat :

Pajala, Ruotsi

Pajala-Ylläksen lentoasema

Leveyspiiri: 67-14-44N, Pituuspiiri: 023-04-08E, korkeus merenpinnasta: 165 m

Tämänhetkinen sää

Tämä raportti tehtiin 29 minuuttia sitten, kello 23.50 UTC
Tuuli 1 kn eri suunnista
Lämpötila 6°C
Kosteus 100%
Ilmanpaine 1012 hPa
Näkyvyys 10 km tai enemmän

METAR: ESUP 282350Z AUTO VRB01KT 9999 SCT074/// 06/06 Q1012

Aika: 02:19 (00:19 UTC)


TAF: puuttuu

Säähavainnot ja -ennusteet yli 4000 lentoasemalta (METAR- ja TAF-raportit).

Käytössä olevat sääasemat on merkitty karttaan keltaisilla ja punaisilla pisteillä.

Aseta hiiri pisteen päälle nähdäksesi sääaseman nimen.

Klikkaa sitten nähdäksesi säähavainnot ja -ennusteet.

Kartan vaihtaminen: klikkaa mustalla rastilla varustettuja vihreitä pisteitä, niin voit zoomata sisään; viivalla varustettua vihreää pistettä, niin voit zoomata ulos tai vihreitä nuolia, niin pääset viereisille kartoille.


METAR-TAF: